Wind_Speed
32 32 32 32 32 33 34 35 35 35 36 37 38 38 37 38 39 39 40 40 41 41 42 42 42 42 42 41 42 42 42 42 43 43 43 44 44 45 45 46 46 46 46 45
33 33 31 32 32 34 34 35 36 36 37 38 38 39 38 38 39 39 40 41 41 42 43 43 43 43 42 42 43 43 43 43 44 44 44 45 45 46 46 46 46 47 47 47
33 33 32 33 33 34 35 36 36 36 37 39 40 40 38 38 38 39 40 40 40 41 42 42 43 43 42 43 43 43 43 44 44 45 45 45 46 47 47 47 47 48 49 49
34 33 33 33 34 34 35 35 36 37 38 38 40 42 39 39 39 39 39 39 40 40 41 42 42 43 43 43 43 43 43 44 45 45 46 46 46 47 47 48 48 49 49 49
33 33 33 34 34 34 35 35 36 37 38 40 40 42 40 40 39 39 39 39 39 40 41 42 42 43 43 43 43 43 43 43 44 45 45 46 46 46 47 47 48 48 48 49
32 32 33 33 34 34 35 35 36 37 38 40 39 41 41 39 39 38 39 40 40 40 41 41 42 43 44 43 43 43 43 43 44 45 45 45 46 46 46 46 46 47 48 48
32 32 32 32 33 33 34 34 35 36 37 39 37 39 39 38 37 37 38 38 40 40 40 41 41 42 43 43 43 43 43 43 44 44 44 45 45 45 46 46 46 46 46 47
33 32 32 32 33 33 33 33 34 35 36 37 36 37 37 36 36 36 37 37 38 39 39 40 40 41 42 42 43 43 43 43 43 43 43 44 44 45 46 46 46 46 46 47
33 33 32 32 32 33 33 33 34 35 36 37 36 36 36 35 35 36 36 37 37 38 39 39 40 40 41 42 43 43 43 43 42 43 43 44 44 45 46 46 46 47 47 47
32 32 31 31 32 33 33 33 33 35 36 37 37 36 35 34 34 35 36 37 37 38 38 39 39 40 41 41 43 43 44 44 43 44 44 45 46 46 47 48 47 47 47 47
32 33 32 32 31 32 32 33 33 34 35 36 37 36 34 34 34 34 35 36 37 38 38 39 39 40 40 41 42 43 44 45 45 45 45 46 46 47 47 48 48 48 48 48
31 33 33 32 32 32 32 32 33 34 35 37 38 38 36 35 34 35 35 36 36 37 37 38 39 40 40 41 42 43 44 46 46 46 46 46 46 47 47 48 48 49 49 49
31 31 32 32 32 32 32 32 32 34 35 36 37 37 35 35 35 36 36 36 37 37 37 38 39 40 41 41 42 43 44 44 45 45 47 47 47 47 48 49 50 50 50 50
31 31 32 32 31 32 32 31 31 32 33 34 34 34 33 35 36 36 36 36 37 37 37 37 38 39 39 40 41 42 43 44 44 45 46 46 46 46 47 48 49 50 51 51
32 32 32 32 32 33 32 31 31 32 32 33 32 34 34 34 35 36 35 35 35 36 35 36 37 37 38 39 40 41 42 43 43 44 44 45 46 46 46 47 48 50 51 51
30 31 31 30 30 31 32 31 31 31 31 32 32 32 32 33 34 34 34 34 35 35 35 35 36 36 36 37 38 38 40 41 42 42 42 43 44 44 45 46 47 48 49 50
29 29 30 29 29 30 29 28 30 32 32 32 31 30 31 32 33 34 34 34 33 34 34 34 34 35 35 36 36 37 38 39 40 40 41 42 43 44 45 45 46 47 48 49
28 28 29 30 29 29 27 27 28 29 30 31 31 30 30 31 32 33 33 33 33 34 34 35 36 36 36 36 37 38 38 38 38 39 40 41 42 43 44 44 45 45 46 48
28 28 28 29 30 29 26 27 27 29 29 29 30 30 30 30 30 30 31 32 33 33 33 34 35 35 36 36 37 37 37 37 38 38 38 39 40 40 40 41 42 43 44 45
26 27 27 28 29 29 27 27 28 28 28 28 29 29 30 30 30 30 30 31 32 32 32 33 34 34 34 35 35 36 36 36 37 38 38 38 38 38 38 39 40 41 42 43
25 26 27 28 28 28 27 28 28 29 28 28 29 30 30 30 30 30 30 30 31 32 32 32 33 32 32 32 33 34 34 35 36 37 37 37 37 37 38 39 40 41 41 42
25 25 26 27 27 27 28 28 28 29 29 29 30 30 30 30 29 29 30 30 31 31 31 32 32 31 31 32 32 33 34 34 35 35 36 36 37 37 38 39 40 41 42 42
25 25 25 26 26 27 27 27 28 28 29 30 30 30 31 30 30 29 29 30 30 31 31 31 32 31 32 32 33 33 34 34 34 35 36 37 37 38 39 39 40 40 41 42
25 25 25 25 25 26 26 27 28 29 30 30 30 30 30 31 31 31 31 31 31 31 31 31 31 31 31 32 32 32 33 33 34 34 36 37 38 39 39 40 41 41 42 42
23 24 24 24 24 25 25 26 26 27 28 29 30 30 30 30 31 31 31 31 31 31 31 31 31 30 31 31 32 32 32 32 33 34 35 36 36 37 38 39 40 41 42 42
22 23 24 24 24 25 25 26 26 27 27 28 29 29 29 30 29 29 30 30 31 31 30 30 30 30 31 31 31 31 31 32 32 33 33 33 34 35 37 38 38 39 39 40
Wind_Direction
270 270 270 270 269 268 267 266 266 265 265 265 263 263 262 262 261 260 259 259 258 257 257 258 259 259 259 259 259 259 259 260 261 261 260 260 260 259 258 257 256 255 255 256
270 270 270 269 268 268 267 266 266 266 266 266 264 263 262 263 263 262 261 260 260 258 258 258 259 259 259 259 260 260 260 261 261 261 261 261 261 260 258 257 256 255 254 255
272 271 271 270 269 269 267 267 267 268 267 267 266 264 263 264 264 263 263 262 261 259 258 258 259 260 260 260 261 261 261 261 261 261 261 261 261 260 259 258 257 255 255 256
272 272 271 271 270 270 269 269 269 268 268 267 267 267 263 264 265 265 264 263 262 260 259 258 259 259 260 261 261 261 261 261 261 261 261 261 261 260 259 258 257 256 255 255
274 273 272 271 271 270 272 271 269 268 268 268 267 268 266 265 265 266 265 264 263 262 260 260 260 260 261 261 262 261 260 260 260 261 261 261 261 260 259 259 258 256 255 255
274 274 273 273 271 271 272 272 271 270 269 268 268 268 268 266 267 266 265 263 263 262 262 262 262 261 261 262 261 260 260 260 260 261 261 261 260 259 259 258 258 257 256 256
275 274 274 273 272 271 271 272 272 272 271 271 271 269 270 269 268 267 265 264 263 263 263 263 263 262 261 261 261 261 261 260 260 260 260 260 260 259 259 258 257 257 257 257
277 275 275 274 273 273 272 272 271 273 273 274 273 271 273 272 271 269 267 266 265 264 263 264 263 262 262 261 261 261 261 260 260 260 260 260 259 259 259 259 258 257 258 258
278 277 275 273 273 273 273 272 272 273 274 274 274 274 273 273 272 271 270 268 267 267 265 264 264 264 263 262 261 261 261 260 260 259 260 261 260 259 259 258 258 258 258 258
278 277 275 274 273 273 273 273 273 271 273 274 275 274 275 274 274 273 271 270 269 268 266 265 265 264 264 263 262 261 261 260 260 260 261 261 261 260 259 259 258 258 258 258
279 277 276 275 274 274 272 272 272 272 271 273 274 274 275 277 276 274 272 272 271 269 268 266 264 263 263 263 263 261 261 260 261 261 261 261 261 261 259 257 257 257 258 258
280 279 278 277 276 275 274 273 273 271 271 272 274 275 276 276 275 274 273 273 272 271 269 267 265 264 264 264 263 263 262 261 261 262 262 262 261 260 258 257 257 258 258 259
279 278 279 278 276 275 274 272 272 271 271 271 272 275 275 274 274 274 274 274 273 272 270 268 267 266 266 266 266 265 264 263 263 263 262 262 261 260 259 258 258 258 258 259
277 277 277 277 278 276 274 273 272 271 270 271 271 273 274 273 272 273 273 273 273 272 270 268 267 267 267 267 266 267 266 265 264 263 261 261 261 261 259 259 259 259 259 259
278 278 278 277 276 276 275 273 272 271 272 272 272 273 274 273 272 273 273 272 272 271 271 270 269 269 268 268 268 268 267 266 265 264 262 262 262 261 261 260 260 260 259 259
280 279 279 277 277 277 275 274 272 271 271 272 273 275 275 274 273 274 273 273 272 272 272 272 270 269 270 270 270 270 269 268 266 264 264 263 263 263 263 262 261 260 260 260
281 280 279 279 278 277 276 275 274 272 271 272 276 278 277 276 275 274 273 273 272 271 270 271 270 270 270 270 271 271 271 269 267 266 265 265 265 265 264 263 263 261 260 260
282 280 280 280 279 277 281 277 276 276 275 273 273 277 278 278 278 276 275 274 273 272 271 271 271 270 270 270 271 272 271 270 269 269 268 268 267 266 265 264 263 262 261 260
282 281 281 280 279 280 280 279 281 280 277 275 274 277 278 280 280 278 276 276 275 274 273 273 272 273 272 272 272 272 271 271 271 270 271 270 269 268 266 264 264 263 263 263
283 279 279 280 280 280 281 280 281 283 281 280 277 278 280 281 280 279 278 278 277 275 275 274 274 274 274 274 273 273 273 273 272 271 271 270 269 268 266 266 266 266 266 266
287 283 280 280 282 282 281 283 284 284 285 284 281 279 280 281 281 279 278 278 277 277 276 276 276 276 275 275 274 274 274 275 274 273 271 270 269 268 267 267 267 268 268 268
290 286 283 282 281 282 281 283 285 286 286 286 285 282 281 281 280 278 278 278 278 277 277 276 276 275 276 276 276 276 275 276 276 274 271 270 269 268 268 269 269 269 269 269
290 288 285 284 283 282 283 284 285 285 286 286 285 283 281 279 279 279 279 279 279 279 278 278 277 276 276 277 277 277 277 277 277 276 273 272 271 271 271 271 271 271 271 271
287 286 285 286 285 283 284 284 284 284 285 286 285 285 282 279 279 281 282 281 280 280 279 279 279 278 277 278 278 279 280 279 278 277 276 274 274 274 274 274 274 274 274 273
288 286 286 285 285 284 283 284 285 285 285 286 287 287 285 281 280 280 282 282 281 280 280 279 279 279 278 279 279 280 280 279 279 279 278 276 275 275 276 276 276 276 277 277
288 288 287 286 286 285 285 285 287 288 288 288 288 287 285 283 283 283 283 284 283 282 281 280 280 280 280 280 281 281 280 281 281 281 280 280 279 279 279 278 278 278 279 279
Height
5698 5698 5697 5697 5695 5695 5694 5694 5694 5695 5694 5694 5694 5695 5697 5697 5697 5698 5699 5700 5701 5702 5703 5704 5705 5706 5706 5707 5708 5709 5710 5710 5710 5711 5712 5712 5712 5713 5714 5715 5717 5719 5721 5723
5690 5689 5689 5687 5685 5684 5684 5684 5684 5685 5684 5683 5683 5684 5686 5686 5687 5687 5688 5689 5690 5691 5692 5693 5694 5695 5696 5696 5697 5697 5698 5698 5699 5699 5699 5700 5700 5700 5702 5703 5704 5706 5709 5711
5680 5681 5679 5677 5676 5675 5674 5674 5675 5674 5673 5672 5672 5673 5676 5676 5676 5676 5677 5678 5679 5680 5681 5681 5682 5683 5684 5685 5685 5686 5686 5686 5687 5687 5687 5687 5687 5688 5689 5690 5692 5694 5696 5699
5670 5670 5669 5667 5666 5665 5665 5665 5664 5663 5662 5661 5662 5660 5665 5666 5666 5666 5666 5667 5668 5668 5669 5670 5671 5672 5673 5673 5673 5674 5674 5674 5674 5675 5675 5675 5675 5676 5676 5678 5679 5681 5683 5685
5660 5660 5658 5658 5657 5656 5655 5655 5653 5652 5651 5650 5650 5649 5653 5654 5655 5655 5655 5655 5656 5657 5658 5658 5659 5660 5661 5661 5662 5662 5662 5662 5662 5662 5662 5663 5663 5663 5664 5665 5666 5668 5670 5672
5651 5650 5648 5648 5647 5646 5645 5644 5643 5641 5640 5639 5641 5639 5640 5642 5644 5644 5644 5644 5645 5645 5646 5647 5647 5648 5648 5649 5649 5650 5650 5650 5650 5650 5650 5650 5651 5651 5652 5653 5654 5656 5658 5660
5641 5640 5639 5638 5637 5636 5635 5635 5633 5630 5628 5628 5631 5628 5629 5632 5632 5632 5633 5633 5633 5634 5635 5635 5636 5636 5637 5637 5637 5637 5638 5638 5638 5638 5638 5638 5638 5639 5640 5641 5642 5644 5646 5647
5631 5631 5630 5628 5628 5627 5626 5625 5624 5622 5620 5619 5619 5618 5621 5621 5621 5621 5621 5622 5622 5623 5623 5624 5624 5624 5625 5625 5625 5625 5625 5626 5626 5626 5626 5626 5626 5627 5628 5629 5630 5632 5634 5635
5621 5620 5620 5618 5617 5617 5615 5614 5614 5613 5610 5609 5609 5609 5611 5611 5611 5611 5611 5611 5611 5611 5612 5612 5612 5612 5613 5613 5613 5613 5613 5613 5614 5614 5614 5614 5615 5615 5616 5617 5618 5620 5621 5623
5611 5610 5610 5609 5608 5607 5606 5605 5604 5602 5600 5599 5599 5600 5601 5601 5600 5600 5600 5600 5600 5600 5600 5600 5601 5601 5601 5601 5601 5601 5601 5601 5602 5602 5602 5603 5603 5603 5604 5604 5606 5607 5609 5610
5601 5600 5600 5599 5598 5597 5597 5596 5593 5592 5591 5590 5588 5592 5592 5591 5590 5590 5589 5589 5588 5588 5589 5589 5589 5589 5589 5589 5589 5589 5589 5589 5589 5589 5590 5590 5590 5591 5591 5592 5593 5595 5596 5597
5592 5590 5589 5589 5588 5586 5585 5585 5584 5583 5582 5580 5578 5583 5582 5581 5580 5579 5579 5578 5577 5577 5577 5578 5577 5577 5577 5577 5577 5577 5577 5576 5577 5577 5577 5577 5578 5578 5578 5579 5580 5582 5583 5584
5582 5581 5579 5579 5580 5578 5576 5575 5574 5573 5571 5570 5569 5573 5571 5570 5569 5568 5568 5567 5566 5566 5566 5566 5566 5566 5565 5565 5565 5565 5564 5564 5564 5564 5564 5564 5565 5565 5565 5566 5567 5568 5569 5571
5572 5571 5571 5570 5568 5567 5566 5565 5564 5562 5561 5560 5560 5560 5561 5559 5558 5558 5557 5556 5555 5555 5555 5554 5554 5554 5554 5553 5553 5552 5552 5552 5551 5551 5551 5551 5552 5552 5552 5552 5553 5554 5556 5557
5562 5561 5561 5560 5558 5557 5556 5555 5554 5553 5552 5551 5551 5550 5550 5549 5548 5547 5546 5545 5544 5544 5544 5543 5543 5543 5542 5542 5541 5541 5540 5539 5539 5538 5538 5538 5538 5538 5539 5539 5539 5540 5541 5542
5553 5552 5551 5550 5549 5547 5546 5545 5545 5544 5542 5541 5541 5541 5540 5538 5537 5536 5535 5535 5534 5534 5533 5532 5532 5531 5531 5530 5529 5529 5528 5527 5526 5526 5526 5525 5525 5525 5525 5525 5525 5526 5527 5528
5544 5543 5541 5541 5540 5537 5537 5537 5536 5535 5534 5533 5531 5532 5530 5528 5527 5526 5525 5525 5524 5523 5523 5522 5521 5520 5520 5519 5518 5517 5516 5515 5514 5514 5513 5513 5513 5512 5512 5512 5512 5512 5513 5514
5536 5534 5532 5531 5530 5529 5532 5528 5526 5525 5524 5523 5522 5522 5520 5519 5517 5516 5515 5514 5514 5513 5512 5511 5511 5510 5509 5508 5507 5506 5505 5504 5503 5502 5501 5501 5500 5499 5499 5498 5498 5498 5499 5500
5528 5526 5523 5522 5519 5519 5521 5519 5517 5516 5516 5514 5513 5512 5511 5509 5508 5507 5505 5504 5503 5502 5502 5501 5500 5499 5498 5497 5496 5495 5494 5493 5492 5491 5490 5488 5487 5487 5486 5486 5486 5486 5486 5486
5519 5517 5516 5513 5511 5511 5513 5511 5508 5508 5507 5506 5504 5502 5501 5500 5499 5499 5496 5495 5494 5493 5492 5491 5490 5488 5487 5486 5485 5484 5483 5482 5480 5479 5478 5477 5476 5475 5474 5474 5474 5473 5473 5472
5512 5509 5508 5506 5503 5503 5503 5501 5500 5500 5499 5496 5494 5493 5492 5490 5490 5489 5487 5486 5484 5483 5482 5481 5479 5478 5477 5476 5475 5474 5472 5471 5469 5468 5466 5465 5464 5464 5463 5463 5462 5461 5461 5460
5503 5501 5500 5498 5496 5498 5495 5493 5493 5491 5489 5487 5485 5484 5482 5481 5479 5478 5477 5476 5474 5473 5472 5470 5469 5468 5467 5465 5464 5463 5462 5460 5458 5457 5455 5454 5454 5453 5452 5451 5450 5449 5448 5447
5496 5495 5492 5491 5491 5489 5486 5485 5483 5482 5480 5478 5476 5475 5473 5471 5470 5469 5468 5466 5465 5464 5462 5461 5460 5458 5457 5455 5454 5453 5451 5450 5448 5446 5445 5444 5443 5442 5441 5440 5438 5437 5436 5435
5488 5486 5484 5482 5481 5480 5478 5476 5475 5473 5471 5469 5467 5466 5464 5462 5461 5460 5458 5457 5455 5454 5453 5451 5450 5448 5447 5446 5444 5442 5441 5439 5438 5436 5434 5433 5432 5430 5429 5428 5426 5425 5423 5422
5480 5478 5476 5475 5474 5472 5471 5469 5467 5465 5462 5460 5459 5457 5455 5453 5452 5450 5448 5447 5445 5444 5442 5441 5440 5438 5437 5436 5434 5433 5431 5429 5428 5426 5424 5422 5421 5419 5418 5416 5414 5412 5410 5408
5473 5471 5469 5468 5466 5464 5463 5461 5459 5456 5454 5452 5450 5448 5446 5444 5442 5441 5439 5437 5435 5434 5432 5431 5430 5428 5427 5426 5424 5423 5421 5420 5418 5416 5414 5412 5410 5408 5406 5404 5402 5400 5398 5395